Regional Weather Roundup
Issued by NWS

Home | Current Version | Previous Version | Text Only | Print | Product List | Glossary On
Versions: 1 2 3 4 5 6 7 8 9 10 11 12 13 14 15 16 17 18 19 20 21 22 23 24 25 26 27 28 29 30 31 32 33 34 35 36 37 38 39 40 41 42 43 44 45 46 47 48 49 50
000
ASPQ40 PGUM 221812
RWRPQ
WEATHER ROUNDUP FOR THE MARIANAS AND MICRONESIA
NATIONAL WEATHER SERVICE TIYAN GU
400 AM CHST FRI FEB 23 2018

GUZ001>004-221900-
MARIANA ISLANDS-

CITY           SKY/WX    TMP DP  RH WIND       PRES   REMARKS
GUAM AIRPORT   MOCLDY    81  77  89 NE15      29.85F
ANDERSEN AFB   NOT AVBL
ROTA AIRPORT   NOT AVBL
TINIAN AP      NOT AVBL
SAIPAN AP      PTCLDY    79  77  94 E16       29.86S

$$

PMZ161-221900-
REPUBLIC OF PALAU-

CITY           SKY/WX    TMP DP  RH WIND       PRES   REMARKS
KOROR AP       CLOUDY    77  73  88 NE7       29.75S
KOROR WSO      CLOUDY    77  72  83 N8        29.76S

$$

PMZ171>174-221900-
FEDERATED STATES OF MICRONESIA-

CITY           SKY/WX    TMP DP  RH WIND       PRES   REMARKS
YAP AIRPORT    NOT AVBL
CHUUK AP       MOCLDY    81  79  94 VRB6      29.76F
POHNPEI AP     PTCLDY    81  73  78 E10       29.82
POHNPEI WSO    PTCLDY    81  72  74 NE3       29.85R
KOSRAE AP      NOT AVBL

$$

PMZ181-221900-
REPUBLIC OF THE MARSHALL ISLANDS-

CITY           SKY/WX    TMP DP  RH WIND       PRES   REMARKS
KWAJALEIN AP   MOCLDY    81  72  74 E15       29.85R
MAJURO AP      NOT AVBL
MAJURO WSO     MOCLDY    81  77  89 E10       29.81R

$$




USA.gov is the U.S. government's official web portal to all federal, state and local government web resources and services.